Location: *
(43.7000°S, 168.7000°W)
Time: 15:04:31
(UTC+00:00)

Okean-O - Pass Details

Date: 07 July 2020
Orbit: 638 x 641 km, 98.2° (Epoch: 04 August)

Event Time Altitude Azimuth Distance (km) Brightness Sun altitude
Rises 17:47:27 0° 4° (N) 2,938 6.4 -10.6°
Reaches altitude 10° 17:49:41 10° 0° (N) 2,038 5.5 -10.2°
Maximum altitude 17:54:03 57° 281° (W) 766 2.8 -9.5°
Drops below altitude 10° 17:58:30 10° 201° (SSW) 2,068 4.8 -8.7°
Sets 18:00:46 0° 197° (SSW) 2,987 5.7 -8.4°
